Terminal Aerodrome Forecast
Issued by NWS

Home | Current Version | Previous Version | Text Only | Print | Product List | Glossary On
Versions: 1 2 3 4 5 6 7 8 9 10 11 12 13 14 15 16 17 18 19 20 21 22 23 24 25 26 27 28 29 30 31 32 33 34 35 36 37 38 39 40
000
FTUS46 KPQR 251232 AAA
TAFONP
TAF AMD
KONP 251232Z 2513/2612 VRB05KT P6SM SCT002 BKN016
     FM252000 34011G18KT P6SM BKN021
     FM260200 34009KT P6SM OVC018
     FM260800 VRB03KT P6SM OVC007=

USA.gov is the U.S. government's official web portal to all federal, state and local government web resources and services.